Location: Croydon
(51.3762°N, 0.0982°W)
Time: 00:30:24
(UTC+00:00)

Transit 4A - All Passes

Search period start: 15 November 2019 00:00
Search period end: 25 November 2019 00:00
Orbit: 868 x 976 km, 66.8° (Epoch: 14 November)

Date Brightness Start Highest point End Pass type
(mag) Time Alt. Az. Time Alt. Az. Time Alt. Az.
15 Nov - 01:02:06 10° W 01:07:41 34° NNW 01:13:11 10° NNE visible
15 Nov - 02:51:40 10° NW 02:55:55 19° N 03:00:06 10° NE visible
15 Nov - 04:39:47 10° NNW 04:44:29 23° NNE 04:49:06 10° ENE visible
15 Nov - 06:26:15 10° NW 06:32:09 56° NE 06:37:54 10° ESE visible
15 Nov - 08:12:58 10° NW 08:18:18 36° WSW 08:23:31 10° S daylight
15 Nov - 21:39:25 10° SSE 21:44:19 25° ESE 21:49:07 10° ENE night (unlit)
15 Nov - 23:23:50 10° SW 23:30:06 81° NW 23:36:15 10° NE night (unlit)
16 Nov - 01:12:05 10° W 01:17:21 28° NNW 01:22:32 10° NNE visible
16 Nov - 03:01:37 10° NW 03:05:45 18° N 03:09:50 10° NE visible
16 Nov - 04:49:13 10° NNW 04:54:14 26° NNE 04:59:07 10° E visible
16 Nov - 06:35:36 10° NW 06:41:35 74° NE 06:47:25 10° SE visible
16 Nov - 08:22:40 10° NW 08:27:23 25° WSW 08:32:02 10° SSW daylight
16 Nov - 21:47:53 10° S 21:53:25 34° ESE 21:58:51 10° NE night (unlit)
16 Nov - 23:33:20 10° SW 23:39:31 62° NW 23:45:34 10° NE night (unlit)
17 Nov - 01:22:08 10° WNW 01:27:05 24° NNW 01:31:55 10° NNE visible
17 Nov - 03:11:27 10° NW 03:15:36 19° N 03:19:41 10° NE visible
17 Nov - 04:58:37 10° NNW 05:03:55 31° NNE 05:09:04 10° E visible
17 Nov - 06:44:57 10° NW 06:50:57 84° SW 06:56:46 10° SSE visible
17 Nov - 08:32:38 10° WNW 08:36:24 18° WSW 08:40:09 10° SW daylight
17 Nov - 21:56:39 10° S 22:02:35 47° ESE 22:08:24 10° NE night (unlit)
17 Nov - 23:43:00 10° WSW 23:49:00 48° NW 23:54:54 10° NNE night (unlit)
18 Nov - 01:32:12 10° WNW 01:36:50 22° NNW 01:41:23 10° NNE visible
18 Nov - 03:21:09 10° NW 03:25:26 19° N 03:29:39 10° NE visible
18 Nov - 05:07:58 10° NNW 05:13:32 38° NE 05:18:57 10° ESE visible
18 Nov - 06:54:22 10° NW 07:00:13 62° WSW 07:05:57 10° SSE daylight
18 Nov - 08:43:20 10° W 08:45:21 12° W 08:47:22 10° WSW daylight
18 Nov - 20:23:42 10° SE 20:26:34 13° ESE 20:29:23 10° ENE night (unlit)
18 Nov - 22:05:39 10° SSW 22:11:50 64° ESE 22:17:52 10° NE night (unlit)
18 Nov - 23:52:48 10° WSW 23:58:34 38° NW 00:04:12 10° NNE night (unlit)
19 Nov - 01:42:17 10° WNW 01:46:39 20° N 01:50:56 10° NE visible
19 Nov - 03:30:44 10° NNW 03:35:15 21° NNE 03:39:40 10° ENE visible
19 Nov - 05:17:18 10° NNW 05:23:04 48° NE 05:28:43 10° ESE visible
19 Nov - 07:03:51 10° NW 07:09:27 44° WSW 07:14:54 10° S daylight
19 Nov - 20:31:15 10° SSE 20:35:32 20° ESE 20:39:47 10° ENE night (unlit)
19 Nov - 22:14:52 10° SSW 22:21:08 85° SE 22:27:15 10° NE night (unlit)
20 Nov - 00:02:43 10° W 00:08:11 32° NNW 00:13:32 10° NNE night (unlit)
20 Nov - 01:52:17 10° NW 01:56:28 19° N 02:00:35 10° NE visible
20 Nov - 03:40:13 10° NNW 03:45:00 24° NNE 03:49:42 10° ENE visible
20 Nov - 05:26:38 10° NW 05:32:34 62° NE 05:38:20 10° SE visible
20 Nov - 07:13:27 10° NW 07:18:35 31° WSW 07:23:37 10° S daylight
20 Nov - 20:39:27 10° SSE 20:44:36 28° ESE 20:49:39 10° NE night (unlit)
20 Nov - 22:24:16 10° SW 22:30:30 74° NW 22:36:36 10° NE night (unlit)
21 Nov - 00:12:43 10° W 00:17:51 27° NNW 00:22:54 10° NNE night (unlit)
21 Nov - 02:02:12 10° NW 02:06:19 18° N 02:10:22 10° NE visible
21 Nov - 03:49:38 10° NNW 03:54:43 28° NNE 03:59:43 10° E visible
21 Nov - 05:35:58 10° NW 05:41:58 82° NE 05:47:48 10° SE visible
21 Nov - 07:23:13 10° WNW 07:27:39 22° WSW 07:32:00 10° SSW daylight
21 Nov - 20:48:02 10° S 20:53:43 38° ESE 20:59:18 10° NE night (unlit)
21 Nov - 22:33:50 10° WSW 22:39:57 57° NW 22:45:56 10° NE night (unlit)
22 Nov - 00:22:47 10° WNW 00:27:36 23° NNW 00:32:19 10° NNE night (unlit)
22 Nov - 02:11:59 10° NW 02:16:09 19° N 02:20:15 10° NE visible
22 Nov - 03:59:00 10° NNW 04:04:23 33° NNE 04:09:39 10° E visible
22 Nov - 05:45:22 10° NW 05:51:18 75° SW 05:57:05 10° SSE visible
22 Nov - 07:33:22 10° WNW 07:36:38 15° WSW 07:39:54 10° SW daylight
22 Nov - 19:17:21 10° ESE 19:17:52 10° E 19:18:22 10° E night (unlit)
22 Nov - 20:56:54 10° SSW 21:02:55 52° ESE 21:08:49 10° NE night (unlit)
22 Nov - 22:43:32 10° WSW 22:49:28 44° NW 22:55:14 10° NNE night (unlit)
23 Nov - 00:32:52 10° WNW 00:37:22 21° NNW 00:41:48 10° NNE night (unlit)
23 Nov - 02:21:38 10° NW 02:25:59 20° NNE 02:30:15 10° ENE visible
23 Nov - 04:08:20 10° NNW 04:13:58 41° NE 04:19:29 10° ESE visible
23 Nov - 05:54:47 10° NW 06:00:33 55° WSW 06:06:12 10° SSE visible
23 Nov - 19:23:20 10° SE 19:26:47 16° ESE 19:30:13 10° ENE night (unlit)
23 Nov - 21:05:59 10° SSW 21:12:11 71° ESE 21:18:14 10° NE night (unlit)
23 Nov - 22:53:23 10° W 22:59:02 36° NW 23:04:34 10° NNE night (unlit)
24 Nov - 00:42:55 10° NW 00:47:11 19° N 00:51:23 10° NE night (unlit)
24 Nov - 02:31:10 10° NNW 02:35:46 22° NNE 02:40:16 10° ENE visible
24 Nov - 04:17:40 10° NNW 04:23:30 52° NE 04:29:11 10° ESE visible
24 Nov - 06:04:18 10° NW 06:09:44 39° WSW 06:15:04 10° S visible
24 Nov - 19:31:10 10° SSE 19:35:48 22° ESE 19:40:21 10° ENE night (unlit)
24 Nov - 21:15:15 10° SW 21:21:31 87° NW 21:27:37 10° NE night (unlit)
24 Nov - 23:03:20 10° W 23:08:40 29° NNW 23:13:54 10° NNE night (unlit)
